User: anonymous   Login
Location: Meetinghouse Hill
(42.7686°N, 71.7752°W)
Time: 23:27:21
(UTC-04:00)
Language:

Iridium 34 - Orbit

View from above orbital plane
View from above orbital plane
View from above satellite
View from above satellite

Ground track
Ground track

The orbit data is extracted from the following two-line orbital elements,

1 24969U 97056E   16270.54341795  .00000057  00000-0  13273-4 0  9993
2 24969  86.3934  69.0282 0002034  91.2708 268.8720 14.34215423994743
Epoch (UTC): 26 September 2016 13:02:31
Eccentricity: 0.0002034
inclination: 86.3934°
perigee height: 776 km
apogee height: 779 km
right ascension of ascending node: 69.0282°
argument of perigee: 91.2708°
revolutions per day: 14.34215423
mean anomaly at epoch: 268.8720°
orbit number at epoch: 99474

The dashed part of the orbit path shows where the satellite is in the earth's shadow,  

DLR